Menalon — SXCH — position and weather

sailwx.info

Track history (hours):
 
Tides and Currents Weather Stations Pressure Air Temp Water Temp Dewpoint Dewpoint Depression Visibility Wind Speed Wind Dir Waves Ship Positions

Menalon

Last reported at 2014-Jul-30 00:31 UTC. Time now 2014-Jul-30 03:04 UTC.
Position N 32°09' E 030°53'.

; draft 5.2 m.

Type: Ship (hazmat cat C). MMSI: 239741000.

Date/timePositionNaut miles runAvg speedWind from/ knotsBaromVisibWave heightAir tempDewpointWater temp
2014-Jul-30 00:31N 32°09' E 030°53'1 1.1
2014-Jul-29 23:33N 32°08' E 030°52'1 1.2
2014-Jul-29 22:33N 32°08' E 030°51'1 1.1
2014-Jul-29 21:33N 32°08' E 030°50'1 1.0
2014-Jul-29 20:33N 32°07' E 030°49'1 1.0
2014-Jul-29 19:33N 32°07' E 030°48'1 0.9
2014-Jul-29 18:33N 32°06' E 030°47'1 1.0
2014-Jul-29 17:33N 32°06' E 030°46'1 1.1
2014-Jul-29 16:32N 32°05' E 030°44'1 1.2
2014-Jul-29 15:33N 32°05' E 030°43'1 1.3
2014-Jul-29 14:33N 32°04' E 030°42'7 7.4
2014-Jul-29 13:33N 31°57' E 030°43'7 6.7
2014-Jul-29 12:33N 31°50' E 030°43'1 1.2
2014-Jul-29 11:33N 31°51' E 030°42'1 1.1
2014-Jul-29 10:33N 31°52' E 030°41'1 1.1
2014-Jul-29 09:33N 31°52' E 030°39'1 1.0
2014-Jul-29 08:33N 31°53' E 030°39'1 0.9
2014-Jul-29 07:28N 31°53' E 030°38'1 0.6
2014-Jul-29 05:33N 31°54' E 030°37'23 7.1
2014-Jul-29 02:21N 32°03' E 031°01'1 0.6
2014-Jul-29 01:33N 32°03' E 031°00'1 0.7
2014-Jul-29 00:31N 32°03' E 030°60'1 0.7
2014-Jul-28 23:28N 32°04' E 030°59'1 0.8
2014-Jul-28 22:33N 32°04' E 030°58'1 0.9
2014-Jul-28 21:33N 32°04' E 030°57'1 1.0
2014-Jul-28 20:33N 32°04' E 030°56'1 1.0
2014-Jul-28 19:33N 32°04' E 030°54'1 1.1
2014-Jul-28 18:33N 32°04' E 030°53'1 1.1
2014-Jul-28 17:33N 32°04' E 030°52'1 1.1
2014-Jul-28 16:33N 32°04' E 030°50'1 1.1
2014-Jul-28 15:33N 32°04' E 030°49'1 1.2
2014-Jul-28 14:33N 32°04' E 030°48'1 1.1
2014-Jul-28 13:32N 32°04' E 030°46'3 1.0
2014-Jul-28 10:28N 32°03' E 030°43'1 0.9
2014-Jul-28 09:33N 32°02' E 030°42'4 1.1
2014-Jul-28 05:32N 32°06' E 030°39'51 7.3
2014-Jul-27 22:32N 32°42' E 029°56'8 8.2
2014-Jul-27 21:33N 32°47' E 029°49'9 8.8
2014-Jul-27 20:33N 32°53' E 029°41'2310.4
2014-Jul-27 18:20N 33°09' E 029°21'24410.9
2014-Jul-26 20:04N 35°49' E 025°38'510.7
2014-Jul-26 19:34N 35°52' E 025°32'1110.6
2014-Jul-26 18:34N 35°58' E 025°22'1010.4
2014-Jul-26 17:33N 36°04' E 025°12'1010.2
2014-Jul-26 16:33N 36°11' E 025°02'1010.2
2014-Jul-26 15:33N 36°16' E 024°51'1010.1
2014-Jul-26 14:33N 36°22' E 024°41'1010.2
2014-Jul-26 13:33N 36°28' E 024°31'1210.1
2014-Jul-26 12:24N 36°35' E 024°19'910.1
2014-Jul-26 11:29N 36°43' E 024°13'1410.5
2014-Jul-26 10:10N 36°56' E 024°06'4310.7
2014-Jul-26 06:09N 37°35' E 023°44'610.7
2014-Jul-26 05:33N 37°41' E 023°41'1010.3
2014-Jul-26 04:33N 37°50' E 023°34'1110.8
2014-Jul-26 03:34N 37°52' E 023°21'1310.1
2014-Jul-26 02:18N 37°55' E 023°05'0 0.1
2014-Jul-26 01:30N 37°55' E 023°05'0 0.0
2014-Jul-26 00:28N 37°55' E 023°05'0 0.0
2014-Jul-25 22:32N 37°55' E 023°05'0 0.0
2014-Jul-25 21:32N 37°55' E 023°05'0 0.0
2014-Jul-25 20:24N 37°55' E 023°05'0 0.0
2014-Jul-25 19:33N 37°55' E 023°05'0 0.0
2014-Jul-25 18:32N 37°55' E 023°05'0 0.0
2014-Jul-25 17:33N 37°55' E 023°05'0 0.0
2014-Jul-25 16:33N 37°55' E 023°05'0 0.0
2014-Jul-25 15:33N 37°55' E 023°05'13 0.5
2014-Jul-24 11:34N 37°53' E 023°22'10 9.6
2014-Jul-24 10:30N 37°56' E 023°34'1 1.1
2014-Jul-24 09:34N 37°57' E 023°34'0 0.0
2014-Jul-24 08:34N 37°57' E 023°34'0 0.0
2014-Jul-24 07:33N 37°57' E 023°34'0 0.0
2014-Jul-24 06:33N 37°57' E 023°34'0 0.0
2014-Jul-24 05:33N 37°57' E 023°34'0 0.0
2014-Jul-24 04:33N 37°57' E 023°34'0 0.0
2014-Jul-24 03:34N 37°57' E 023°34'0 0.0
2014-Jul-24 02:33N 37°57' E 023°34'0 0.0
2014-Jul-24 01:34N 37°57' E 023°34'0 0.0
2014-Jul-24 00:33N 37°57' E 023°34'0 0.0
2014-Jul-23 23:33N 37°57' E 023°34'0 0.0
2014-Jul-23 22:33N 37°57' E 023°34'0 0.0
2014-Jul-23 21:33N 37°57' E 023°34'0 0.0
2014-Jul-23 20:33N 37°57' E 023°34'0 0.0
2014-Jul-23 19:33N 37°57' E 023°34'0 0.0
2014-Jul-23 18:34N 37°57' E 023°34'0 0.0
2014-Jul-23 17:34N 37°57' E 023°34'0 0.0
2014-Jul-23 16:33N 37°57' E 023°34'0 0.0
2014-Jul-23 15:34N 37°57' E 023°34'0 0.0
2014-Jul-23 14:34N 37°57' E 023°34'0 0.0
2014-Jul-23 13:34N 37°57' E 023°34'0 0.0
2014-Jul-23 12:34N 37°57' E 023°34'0 0.0
2014-Jul-23 11:33N 37°57' E 023°34'1 0.5
2014-Jul-23 09:33N 37°56' E 023°35'3 3.3
2014-Jul-23 08:33N 37°53' E 023°33'0 0.1
2014-Jul-23 07:33N 37°53' E 023°33'0 0.1
2014-Jul-23 06:34N 37°53' E 023°33'0 0.3
2014-Jul-23 05:34N 37°53' E 023°33'5 0.9
2014-Jul-23 00:33N 37°57' E 023°35'0 0.0
2014-Jul-22 23:34N 37°57' E 023°35'0 0.0
2014-Jul-22 22:33N 37°57' E 023°35'0 0.0
2014-Jul-22 21:33N 37°57' E 023°35'0 0.0
2014-Jul-22 20:33N 37°57' E 023°35'0 0.1
2014-Jul-22 19:33N 37°57' E 023°35'0 0.0
2014-Jul-22 18:33N 37°57' E 023°35'0 0.0
2014-Jul-22 17:34N 37°57' E 023°35'0 0.0
2014-Jul-22 16:33N 37°57' E 023°35'0 0.0
2014-Jul-22 15:34N 37°57' E 023°35'0 0.0
2014-Jul-22 14:33N 37°57' E 023°35'0 0.0
2014-Jul-22 13:33N 37°57' E 023°35'0 0.0
2014-Jul-22 12:33N 37°57' E 023°35'0 0.0
2014-Jul-22 11:34N 37°57' E 023°35'0 0.0
2014-Jul-22 10:33N 37°57' E 023°35'0 0.0
2014-Jul-22 09:34N 37°57' E 023°35'0 0.0
2014-Jul-22 08:34N 37°57' E 023°35'0 0.0
2014-Jul-22 07:33N 37°57' E 023°35'0 0.1
2014-Jul-22 06:33N 37°57' E 023°35'0 0.0
2014-Jul-22 05:33N 37°57' E 023°35'1 0.8
2014-Jul-22 04:34N 37°57' E 023°36'0 0.0
2014-Jul-22 03:33N 37°57' E 023°36'0 0.0
2014-Jul-22 02:34N 37°57' E 023°36'0 0.0
2014-Jul-22 01:34N 37°57' E 023°36'0 0.0
2014-Jul-22 00:34N 37°57' E 023°36'0 0.0
2014-Jul-21 23:33N 37°57' E 023°36'0 0.0
2014-Jul-21 22:34N 37°57' E 023°36'0 0.0
2014-Jul-21 21:33N 37°57' E 023°36'1 0.8
2014-Jul-21 20:33N 37°57' E 023°35'0 0.3
2014-Jul-21 20:18N 37°57' E 023°35'0 0.0
2014-Jul-21 19:33N 37°57' E 023°35'0 0.1
2014-Jul-21 18:33N 37°57' E 023°35'6 5.9
2014-Jul-21 17:33N 37°52' E 023°32'0 0.0
2014-Jul-21 16:34N 37°52' E 023°32'1 0.7
2014-Jul-21 15:33N 37°52' E 023°33'0 0.0
2014-Jul-21 14:34N 37°52' E 023°33'0 0.4
2014-Jul-21 13:33N 37°53' E 023°33'3 3.0
2014-Jul-21 12:33N 37°56' E 023°34'0 0.0
2014-Jul-21 11:33N 37°56' E 023°34'0 0.0
2014-Jul-21 10:34N 37°56' E 023°34'0 0.0
2014-Jul-21 09:33N 37°56' E 023°34'0 0.1
2014-Jul-21 08:33N 37°55' E 023°34'0 0.5
2014-Jul-21 07:33N 37°55' E 023°34'2 2.4
2014-Jul-21 06:33N 37°57' E 023°35'  
Track history (hours):
 
Tides and Currents Weather Stations Pressure Air Temp Water Temp Dewpoint Dewpoint Depression Visibility Wind Speed Wind Dir Waves Ship Positions

Menalon

Last reported at 2014-Jul-30 00:31 UTC. Time now 2014-Jul-30 03:04 UTC.
Position N 32°09' E 030°53'.

; draft 5.2 m.

Type: Ship (hazmat cat C). MMSI: 239741000.

Date/timePositionNaut miles runAvg speedWind from/ knotsBaromVisibWave heightAir tempDewpointWater temp
2014-Jul-30 00:31N 32°09' E 030°53'1 1.1
2014-Jul-29 23:33N 32°08' E 030°52'1 1.2
2014-Jul-29 22:33N 32°08' E 030°51'1 1.1
2014-Jul-29 21:33N 32°08' E 030°50'1 1.0
2014-Jul-29 20:33N 32°07' E 030°49'1 1.0
2014-Jul-29 19:33N 32°07' E 030°48'1 0.9
2014-Jul-29 18:33N 32°06' E 030°47'1 1.0
2014-Jul-29 17:33N 32°06' E 030°46'1 1.1
2014-Jul-29 16:32N 32°05' E 030°44'1 1.2
2014-Jul-29 15:33N 32°05' E 030°43'1 1.3
2014-Jul-29 14:33N 32°04' E 030°42'7 7.4
2014-Jul-29 13:33N 31°57' E 030°43'7 6.7
2014-Jul-29 12:33N 31°50' E 030°43'1 1.2
2014-Jul-29 11:33N 31°51' E 030°42'1 1.1
2014-Jul-29 10:33N 31°52' E 030°41'1 1.1
2014-Jul-29 09:33N 31°52' E 030°39'1 1.0
2014-Jul-29 08:33N 31°53' E 030°39'1 0.9
2014-Jul-29 07:28N 31°53' E 030°38'1 0.6
2014-Jul-29 05:33N 31°54' E 030°37'23 7.1
2014-Jul-29 02:21N 32°03' E 031°01'1 0.6
2014-Jul-29 01:33N 32°03' E 031°00'1 0.7
2014-Jul-29 00:31N 32°03' E 030°60'1 0.7
2014-Jul-28 23:28N 32°04' E 030°59'1 0.8
2014-Jul-28 22:33N 32°04' E 030°58'1 0.9
2014-Jul-28 21:33N 32°04' E 030°57'1 1.0
2014-Jul-28 20:33N 32°04' E 030°56'1 1.0
2014-Jul-28 19:33N 32°04' E 030°54'1 1.1
2014-Jul-28 18:33N 32°04' E 030°53'1 1.1
2014-Jul-28 17:33N 32°04' E 030°52'1 1.1
2014-Jul-28 16:33N 32°04' E 030°50'1 1.1
2014-Jul-28 15:33N 32°04' E 030°49'1 1.2
2014-Jul-28 14:33N 32°04' E 030°48'1 1.1
2014-Jul-28 13:32N 32°04' E 030°46'3 1.0
2014-Jul-28 10:28N 32°03' E 030°43'1 0.9
2014-Jul-28 09:33N 32°02' E 030°42'4 1.1
2014-Jul-28 05:32N 32°06' E 030°39'51 7.3
2014-Jul-27 22:32N 32°42' E 029°56'8 8.2
2014-Jul-27 21:33N 32°47' E 029°49'9 8.8
2014-Jul-27 20:33N 32°53' E 029°41'2310.4
2014-Jul-27 18:20N 33°09' E 029°21'24410.9
2014-Jul-26 20:04N 35°49' E 025°38'510.7
2014-Jul-26 19:34N 35°52' E 025°32'1110.6
2014-Jul-26 18:34N 35°58' E 025°22'1010.4
2014-Jul-26 17:33N 36°04' E 025°12'1010.2
2014-Jul-26 16:33N 36°11' E 025°02'1010.2
2014-Jul-26 15:33N 36°16' E 024°51'1010.1
2014-Jul-26 14:33N 36°22' E 024°41'1010.2
2014-Jul-26 13:33N 36°28' E 024°31'1210.1
2014-Jul-26 12:24N 36°35' E 024°19'910.1
2014-Jul-26 11:29N 36°43' E 024°13'1410.5
2014-Jul-26 10:10N 36°56' E 024°06'4310.7
2014-Jul-26 06:09N 37°35' E 023°44'610.7
2014-Jul-26 05:33N 37°41' E 023°41'1010.3
2014-Jul-26 04:33N 37°50' E 023°34'1110.8
2014-Jul-26 03:34N 37°52' E 023°21'1310.1
2014-Jul-26 02:18N 37°55' E 023°05'0 0.1
2014-Jul-26 01:30N 37°55' E 023°05'0 0.0
2014-Jul-26 00:28N 37°55' E 023°05'0 0.0
2014-Jul-25 22:32N 37°55' E 023°05'0 0.0
2014-Jul-25 21:32N 37°55' E 023°05'0 0.0
2014-Jul-25 20:24N 37°55' E 023°05'0 0.0
2014-Jul-25 19:33N 37°55' E 023°05'0 0.0
2014-Jul-25 18:32N 37°55' E 023°05'0 0.0
2014-Jul-25 17:33N 37°55' E 023°05'0 0.0
2014-Jul-25 16:33N 37°55' E 023°05'0 0.0
2014-Jul-25 15:33N 37°55' E 023°05'13 0.5
2014-Jul-24 11:34N 37°53' E 023°22'10 9.6
2014-Jul-24 10:30N 37°56' E 023°34'1 1.1
2014-Jul-24 09:34N 37°57' E 023°34'0 0.0
2014-Jul-24 08:34N 37°57' E 023°34'0 0.0
2014-Jul-24 07:33N 37°57' E 023°34'0 0.0
2014-Jul-24 06:33N 37°57' E 023°34'0 0.0
2014-Jul-24 05:33N 37°57' E 023°34'0 0.0
2014-Jul-24 04:33N 37°57' E 023°34'0 0.0
2014-Jul-24 03:34N 37°57' E 023°34'0 0.0
2014-Jul-24 02:33N 37°57' E 023°34'0 0.0
2014-Jul-24 01:34N 37°57' E 023°34'0 0.0
2014-Jul-24 00:33N 37°57' E 023°34'0 0.0
2014-Jul-23 23:33N 37°57' E 023°34'0 0.0
2014-Jul-23 22:33N 37°57' E 023°34'0 0.0
2014-Jul-23 21:33N 37°57' E 023°34'0 0.0
2014-Jul-23 20:33N 37°57' E 023°34'0 0.0
2014-Jul-23 19:33N 37°57' E 023°34'0 0.0
2014-Jul-23 18:34N 37°57' E 023°34'0 0.0
2014-Jul-23 17:34N 37°57' E 023°34'0 0.0
2014-Jul-23 16:33N 37°57' E 023°34'0 0.0
2014-Jul-23 15:34N 37°57' E 023°34'0 0.0
2014-Jul-23 14:34N 37°57' E 023°34'0 0.0
2014-Jul-23 13:34N 37°57' E 023°34'0 0.0
2014-Jul-23 12:34N 37°57' E 023°34'0 0.0
2014-Jul-23 11:33N 37°57' E 023°34'1 0.5
2014-Jul-23 09:33N 37°56' E 023°35'3 3.3
2014-Jul-23 08:33N 37°53' E 023°33'0 0.1
2014-Jul-23 07:33N 37°53' E 023°33'0 0.1
2014-Jul-23 06:34N 37°53' E 023°33'0 0.3
2014-Jul-23 05:34N 37°53' E 023°33'5 0.9
2014-Jul-23 00:33N 37°57' E 023°35'0 0.0
2014-Jul-22 23:34N 37°57' E 023°35'0 0.0
2014-Jul-22 22:33N 37°57' E 023°35'0 0.0
2014-Jul-22 21:33N 37°57' E 023°35'0 0.0
2014-Jul-22 20:33N 37°57' E 023°35'0 0.1
2014-Jul-22 19:33N 37°57' E 023°35'0 0.0
2014-Jul-22 18:33N 37°57' E 023°35'0 0.0
2014-Jul-22 17:34N 37°57' E 023°35'0 0.0
2014-Jul-22 16:33N 37°57' E 023°35'0 0.0
2014-Jul-22 15:34N 37°57' E 023°35'0 0.0
2014-Jul-22 14:33N 37°57' E 023°35'0 0.0
2014-Jul-22 13:33N 37°57' E 023°35'0 0.0
2014-Jul-22 12:33N 37°57' E 023°35'0 0.0
2014-Jul-22 11:34N 37°57' E 023°35'0 0.0
2014-Jul-22 10:33N 37°57' E 023°35'0 0.0
2014-Jul-22 09:34N 37°57' E 023°35'0 0.0
2014-Jul-22 08:34N 37°57' E 023°35'0 0.0
2014-Jul-22 07:33N 37°57' E 023°35'0 0.1
2014-Jul-22 06:33N 37°57' E 023°35'0 0.0
2014-Jul-22 05:33N 37°57' E 023°35'1 0.8
2014-Jul-22 04:34N 37°57' E 023°36'0 0.0
2014-Jul-22 03:33N 37°57' E 023°36'0 0.0
2014-Jul-22 02:34N 37°57' E 023°36'0 0.0
2014-Jul-22 01:34N 37°57' E 023°36'0 0.0
2014-Jul-22 00:34N 37°57' E 023°36'0 0.0
2014-Jul-21 23:33N 37°57' E 023°36'0 0.0
2014-Jul-21 22:34N 37°57' E 023°36'0 0.0
2014-Jul-21 21:33N 37°57' E 023°36'1 0.8
2014-Jul-21 20:33N 37°57' E 023°35'0 0.3
2014-Jul-21 20:18N 37°57' E 023°35'0 0.0
2014-Jul-21 19:33N 37°57' E 023°35'0 0.1
2014-Jul-21 18:33N 37°57' E 023°35'6 5.9
2014-Jul-21 17:33N 37°52' E 023°32'0 0.0
2014-Jul-21 16:34N 37°52' E 023°32'1 0.7
2014-Jul-21 15:33N 37°52' E 023°33'0 0.0
2014-Jul-21 14:34N 37°52' E 023°33'0 0.4
2014-Jul-21 13:33N 37°53' E 023°33'3 3.0
2014-Jul-21 12:33N 37°56' E 023°34'0 0.0
2014-Jul-21 11:33N 37°56' E 023°34'0 0.0
2014-Jul-21 10:34N 37°56' E 023°34'0 0.0
2014-Jul-21 09:33N 37°56' E 023°34'0 0.1
2014-Jul-21 08:33N 37°55' E 023°34'0 0.5
2014-Jul-21 07:33N 37°55' E 023°34'2 2.4
2014-Jul-21 06:33N 37°57' E 023°35'  

Dump ship's entire track history